DW9937 Eastsound WA US current weather conditions

sailwx.info

Wind from 203

Air temperature 16.1° C
Dewpoint 13.2° C

Last reported at 2019-Sep-23 01:56 UTC.
Time now 2019-Sep-23 02:44 UTC

Location: N 48°38' W 122°57'.
View on Google Maps.

See reports from other nearby stations

  
Tides and Currents Weather Stations Pressure Air Temp Water Temp Dewpoint Dewpoint Depression Visibility Wind Speed Wind Dir Waves Ship Positions
date/time (UTC)wind fromknots sea level pressurealtimeterstation pressurevisibilityair tempwater tempwave heightnotes
2019-Sep-23 01:56 203 16.1
2019-Sep-23 01:46 284 1 gusting 4 16.7
2019-Sep-23 01:35 225 16.7
2019-Sep-23 01:25 135 17.2
2019-Sep-23 01:15 158 0 gusting 2 17.2
2019-Sep-23 01:04 206 1 gusting 2 17.8
2019-Sep-23 00:54 211 1 gusting 4 17.8
2019-Sep-23 00:44 315 0 gusting 5 17.8
2019-Sep-23 00:34 200 1 gusting 5 18.3
2019-Sep-23 00:24 130 0 gusting 5 18.3
2019-Sep-23 00:14 142 3 gusting 4 18.3
2019-Sep-23 00:04 186 2 gusting 3 18.3
2019-Sep-22 23:54 135 2 gusting 4 18.3
2019-Sep-22 23:44 171 2 gusting 4 18.3
2019-Sep-22 23:33 209 2 gusting 4 18.3
2019-Sep-22 23:23 177 2 gusting 3 17.8
2019-Sep-22 23:13 315 0 gusting 5 17.8
2019-Sep-22 23:03 183 1 gusting 6 17.8
2019-Sep-22 22:52 135 2 gusting 3 17.8
2019-Sep-22 22:42 174 1 gusting 2 17.8
2019-Sep-22 22:32 006 0 gusting 6 17.8
2019-Sep-22 22:22 235 1 gusting 1 17.8
2019-Sep-22 22:12 338 0 gusting 4 17.8
2019-Sep-22 22:02 092 4 gusting 4 17.8
2019-Sep-22 21:50 251 1 gusting 3 17.8
2019-Sep-22 21:40 315 1 gusting 2 17.8
2019-Sep-22 21:30 099 1 gusting 3 17.8
2019-Sep-22 21:18 191 1 gusting 2 17.8
2019-Sep-22 21:08 071 3 gusting 4 17.2
2019-Sep-22 20:58 099 3 gusting 4 17.2
2019-Sep-22 20:47 079 1 gusting 3 17.2
2019-Sep-22 20:37 135 3 gusting 4 17.2
2019-Sep-22 20:27 143 1 gusting 3 17.2
2019-Sep-22 20:17 188 16.7
2019-Sep-22 19:56 231 1 gusting 4 16.7
2019-Sep-22 19:45 134 3 gusting 5 16.7
2019-Sep-22 19:35 130 3 gusting 6 16.7
2019-Sep-22 19:25 108 0 gusting 7 16.1
2019-Sep-22 19:15 113 1 gusting 6 16.1
2019-Sep-22 19:05 126 3 gusting 5 16.1
2019-Sep-22 18:54 158 16.1
2019-Sep-22 18:44 135 3 gusting 6 16.1
2019-Sep-22 18:34 148 2 gusting 6 16.1
2019-Sep-22 18:24 131 4 gusting 7 16.1
2019-Sep-22 18:14 127 4 gusting 6 16.1
2019-Sep-22 18:01 153 2 gusting 6 16.1
2019-Sep-22 17:50 133 3 gusting 8 16.1
2019-Sep-22 17:39 144 5 gusting 6 16.1
2019-Sep-22 17:29 147 5 gusting 7 16.1
2019-Sep-22 17:18 135 5 gusting 6 16.1
2019-Sep-22 17:08 155 5 gusting 7 16.1
2019-Sep-22 16:58 135 6 gusting 7 16.1
2019-Sep-22 16:47 147 2 gusting 3 16.1
2019-Sep-22 16:37 075 2 gusting 5 15.6
2019-Sep-22 16:27 173 1 gusting 6 15.6
2019-Sep-22 16:17 164 1 gusting 6 15.6
2019-Sep-22 16:06 115 2 gusting 6 15.6
2019-Sep-22 15:55 124 1 gusting 8 15.6
2019-Sep-22 15:44 083 3 gusting 4 15.6
2019-Sep-22 15:32 054 1 gusting 6 15.6
2019-Sep-22 15:22 140 1 gusting 3 15.6
2019-Sep-22 15:12 147 3 gusting 6 15.6
2019-Sep-22 15:02 135 2 gusting 6 15.6
2019-Sep-22 14:52 115 5 gusting 7 15.0
2019-Sep-22 14:40 141 5 gusting 7 15.0
2019-Sep-22 14:30 145 5 gusting 7 15.0
2019-Sep-22 14:20 138 3 gusting 6 15.0
2019-Sep-22 14:10 136 2 gusting 6 15.0
2019-Sep-22 14:00 144 3 gusting 6 15.0
2019-Sep-22 13:50 135 2 gusting 5 15.0
2019-Sep-22 13:38 273 2 gusting 5 15.0
2019-Sep-22 13:28 151 4 gusting 5 15.0
2019-Sep-22 13:18 161 2 gusting 4 15.0
2019-Sep-22 13:08 097 3 gusting 6 15.0
2019-Sep-22 12:58 112 1 gusting 3 15.0
2019-Sep-22 12:48 123 4 gusting 5 15.0
2019-Sep-22 12:38 052 0 gusting 4 15.0
2019-Sep-22 12:25 071 0 gusting 2 15.0
2019-Sep-22 12:11 097 3 gusting 5 15.0
2019-Sep-22 12:01 133 0 gusting 4 15.0
2019-Sep-22 11:51 115 0 gusting 2 15.0
2019-Sep-22 11:41 090 1 gusting 3 15.0
2019-Sep-22 11:30 024 1 gusting 2 15.0
2019-Sep-22 11:18 315 0 gusting 1 15.0
2019-Sep-22 11:08 338 0 gusting 4 15.0
2019-Sep-22 10:58 079 15.0
2019-Sep-22 10:48 115 2 gusting 3 15.0
2019-Sep-22 10:38 248 0 gusting 2 15.0
2019-Sep-22 10:28 255 1 gusting 4 15.0
2019-Sep-22 10:18 073 0 gusting 2 15.0
2019-Sep-22 10:08 077 3 gusting 4 15.0
2019-Sep-22 09:58 062 0 gusting 2 15.6
2019-Sep-22 09:48 054 1 gusting 2 15.6
2019-Sep-22 09:23 106 0 gusting 2 15.6
2019-Sep-22 09:11 090 0 gusting 2 15.6
2019-Sep-22 09:00 068 0 gusting 3 15.6
2019-Sep-22 08:50 101 1 gusting 2 15.6
2019-Sep-22 08:40 113 0 gusting 1 15.6
2019-Sep-22 08:29 137 0 gusting 1 15.6
2019-Sep-22 08:19 203 15.6
2019-Sep-22 08:09 203 15.6
2019-Sep-22 07:59 113 0 gusting 2 15.6
2019-Sep-22 07:49 135 15.6
2019-Sep-22 07:39 135 0 gusting 2 15.6
2019-Sep-22 07:29 045 15.6
2019-Sep-22 07:19 068 15.6
2019-Sep-22 07:08 061 0 gusting 1 15.6
2019-Sep-22 06:58 023 15.6
2019-Sep-22 06:47 090 0 gusting 2 15.6
2019-Sep-22 06:37 293 15.6
2019-Sep-22 06:25 315 15.6
2019-Sep-22 06:15 079 15.6
2019-Sep-22 06:05 055 2 gusting 2 16.1
2019-Sep-22 05:55 248 16.1
2019-Sep-22 05:45 248 0 gusting 2 16.1
2019-Sep-22 05:35 282 1 gusting 4 16.1
2019-Sep-22 05:24 248 3 gusting 4 16.1
2019-Sep-22 05:14 308 16.1
2019-Sep-22 05:04 023 16.1
2019-Sep-22 04:52 080 2 gusting 2 16.1
2019-Sep-22 04:42 248 16.1
2019-Sep-22 04:32 248 16.7
2019-Sep-22 04:21 013 0 gusting 1 16.7
2019-Sep-22 04:10 045 16.7
2019-Sep-22 04:00 045 1 gusting 1 16.7
2019-Sep-22 03:50 023 16.7
2019-Sep-22 03:39 068 16.7
2019-Sep-22 03:28 068 0 gusting 0 16.7
2019-Sep-22 03:18 045 0 gusting 0 17.2
2019-Sep-22 03:07 113 17.2
2019-Sep-22 02:57 135 17.2
2019-Sep-22 02:45 135 17.2
2019-Sep-22 02:35 248 17.2
2019-Sep-22 02:25 315 1 gusting 1 17.8
2019-Sep-22 02:14 090 17.8
2019-Sep-22 02:04 090 0 gusting 1 17.8
2019-Sep-22 01:53 248 17.8
2019-Sep-22 01:43 225 18.3
2019-Sep-22 01:32 225 0 gusting 0 18.3
2019-Sep-22 01:20 248 18.3
2019-Sep-22 01:08 248 0 gusting 2 18.9
2019-Sep-22 00:58 225 2 gusting 3 18.9
2019-Sep-22 00:48 248 1 gusting 1 19.4
2019-Sep-22 00:38 270 0 gusting 1 19.4
2019-Sep-22 00:28 248 1 gusting 2 20.0
2019-Sep-22 00:16 261 2 gusting 3 20.0
2019-Sep-22 00:06 254 1 gusting 3 20.0
2019-Sep-21 23:56 270 2 gusting 3 20.0
2019-Sep-21 23:46 248 1 gusting 4 20.0
2019-Sep-21 23:36 165 1 gusting 3 20.0
2019-Sep-21 23:26 248 1 gusting 2 20.0
2019-Sep-21 23:16 151 2 gusting 4 20.6
2019-Sep-21 23:05 210 1 gusting 4 20.6
2019-Sep-21 22:55 225 1 gusting 2 20.6
2019-Sep-21 22:44 135 2 gusting 4 20.6
2019-Sep-21 22:34 247 2 gusting 5 20.6
2019-Sep-21 22:24 158 1 gusting 2 20.0
2019-Sep-21 22:14 225 4 gusting 5 20.0
2019-Sep-21 22:04 301 1 gusting 4 20.0
2019-Sep-21 21:54 135 0 gusting 5 20.0
2019-Sep-21 21:44 144 3 gusting 5 20.0
2019-Sep-21 21:34 128 3 gusting 4 20.0
2019-Sep-21 21:24 144 5 gusting 6 20.0
2019-Sep-21 21:13 165 3 gusting 5 20.0
2019-Sep-21 21:02 158 4 gusting 6 19.4
2019-Sep-21 20:52 152 5 gusting 5 19.4
2019-Sep-21 20:42 023 1 gusting 5 19.4
2019-Sep-21 20:31 038 1 gusting 5 18.9
2019-Sep-21 20:21 114 0 gusting 4 18.9
2019-Sep-21 20:11 211 4 gusting 4 18.9
2019-Sep-21 20:01 166 2 gusting 5 18.9
2019-Sep-21 19:51 147 2 gusting 6 18.9
2019-Sep-21 19:41 234 2 gusting 7 18.9
2019-Sep-21 19:31 151 3 gusting 6 18.9
2019-Sep-21 19:21 132 4 gusting 7 18.3
2019-Sep-21 19:11 135 3 gusting 6 18.3
2019-Sep-21 19:01 086 3 gusting 6 18.3
2019-Sep-21 18:50 158 3 gusting 7 18.3
2019-Sep-21 18:40 109 2 gusting 6 17.8
2019-Sep-21 18:29 155 6 gusting 7 17.8
2019-Sep-21 18:19 158 5 gusting 6 17.2
2019-Sep-21 18:08 163 1 gusting 4 16.7
2019-Sep-21 17:58 145 2 gusting 5 16.7
2019-Sep-21 17:48 084 1 gusting 3 16.1
2019-Sep-21 17:38 149 1 gusting 4 15.6
2019-Sep-21 17:28 152 3 gusting 5 15.0
2019-Sep-21 17:18 052 15.0
2019-Sep-21 17:08 108 1 gusting 4 14.4
2019-Sep-21 16:57 142 2 gusting 5 14.4
2019-Sep-21 16:47 141 0 gusting 2 13.9
2019-Sep-21 16:37 136 0 gusting 2 13.9
2019-Sep-21 16:27 277 13.9
2019-Sep-21 16:17 234 1 gusting 3 13.3
2019-Sep-21 16:07 147 2 gusting 3 13.3
2019-Sep-21 15:57 156 1 gusting 3 13.3
2019-Sep-21 15:46 315 12.8
2019-Sep-21 15:35 315 12.2
2019-Sep-21 15:24 068 11.7
2019-Sep-21 15:14 090 11.7
2019-Sep-21 15:04 045 0 gusting 1 11.1
2019-Sep-21 14:54 068 0 gusting 0 11.1
2019-Sep-21 14:43 068 0 gusting 1 11.1
2019-Sep-21 14:33 090 10.6
2019-Sep-21 14:22 090 10.6
2019-Sep-21 14:12 113 10.6
2019-Sep-21 14:02 090 10.6
2019-Sep-21 13:52 090 10.6
2019-Sep-21 13:42 203 10.6
2019-Sep-21 13:31 203 10.6
2019-Sep-21 13:20 203 10.6
2019-Sep-21 13:10 203 11.1
2019-Sep-21 13:00 203 11.1
2019-Sep-21 12:50 203 11.1
2019-Sep-21 12:39 068 11.1
2019-Sep-21 12:29 068 11.1
2019-Sep-21 12:19 068 0 gusting 0 11.1
2019-Sep-21 12:09 068 11.1
2019-Sep-21 11:59 068 0 gusting 0 11.7
2019-Sep-21 11:49 068 11.7
2019-Sep-21 11:39 068 11.7
2019-Sep-21 11:28 068 0 gusting 2 11.7
2019-Sep-21 11:17 158 12.2
2019-Sep-21 11:06 158 12.2
2019-Sep-21 10:56 158 12.2
2019-Sep-21 10:46 158 0 gusting 0 12.2
2019-Sep-21 10:35 158 12.2
2019-Sep-21 10:25 158 12.2
2019-Sep-21 10:15 158 12.8
2019-Sep-21 10:04 158 12.8
2019-Sep-21 09:54 158 12.8
2019-Sep-21 09:43 158 12.8
2019-Sep-21 09:33 158 12.8
2019-Sep-21 09:21 158 12.8
2019-Sep-21 09:11 225 12.8
2019-Sep-21 09:01 225 0 gusting 0 12.8
2019-Sep-21 08:50 225 12.8
2019-Sep-21 08:40 225 12.8
2019-Sep-21 08:30 225 12.8
2019-Sep-21 08:20 068 0 gusting 0 12.8
2019-Sep-21 08:10 078 1 gusting 1 12.8
2019-Sep-21 08:00 068 0 gusting 1 12.8
2019-Sep-21 07:50 068 0 gusting 1 12.8
2019-Sep-21 07:39 068 0 gusting 1 12.8
2019-Sep-21 07:28 068 0 gusting 2 12.8
2019-Sep-21 07:18 081 1 gusting 1 12.8
2019-Sep-21 07:08 068 12.8
2019-Sep-21 06:58 068 0 gusting 1 12.8
2019-Sep-21 06:47 068 0 gusting 1 12.8
2019-Sep-21 06:37 068 12.8
2019-Sep-21 06:26 068 12.8
2019-Sep-21 06:06 068 0 gusting 0 13.3
2019-Sep-21 05:55 068 13.3
2019-Sep-21 05:45 068 13.3
2019-Sep-21 05:35 068 13.3
2019-Sep-21 05:24 068 13.3
2019-Sep-21 05:14 068 13.3
2019-Sep-21 05:03 068 1 gusting 2 13.3
2019-Sep-21 04:51 090 0 gusting 0 13.3
2019-Sep-21 04:40 090 13.3
2019-Sep-21 04:30 068 13.9
2019-Sep-21 04:19 068 0 gusting 0 13.9
2019-Sep-21 04:09 068 13.9
2019-Sep-21 03:58 068 14.4
2019-Sep-21 03:48 068 14.4
2019-Sep-21 03:38 068 14.4
2019-Sep-21 03:28 068 14.4
2019-Sep-21 03:17 068 15.0
2019-Sep-21 03:07 068 0 gusting 2 15.0
2019-Sep-21 02:57 068 1 gusting 1 15.6
2019-Sep-21 02:45 068 1 gusting 1 16.1
2019-Sep-21 02:34 068 1 gusting 2 16.1
2019-Sep-21 02:24 068 0 gusting 2 16.7
2019-Sep-21 02:14 090 0 gusting 0 17.2
2019-Sep-21 02:04 158 17.8